Вернуться в каталог

STARLINK-30423

АктивенСвязьVLEO
NORAD 57843·PAYLOAD·🇺🇸 United States

Запущен Sep 12, 2023 с Vandenberg Space Force Base

Loading…

Ближайшие Пролёты (ближайшие 24 часа)

TLE

СвежийSource: CelesTrak SupGP

Эпоха: Sep 14, 2026, 20:42 UTC

1 57843C 23141D   26257.86298611 -.00033309  00000+0 -10712-2 0  2570
2 57843  53.1574 124.0048 0001351  82.7654  91.5918 15.31715793    11

Отслеживайте STARLINK-30423 в реальном времени с AllMySat

Download on the App Store